User: anonymous   Login
Location: NJAA Observatory
(40.6819°N, 74.8979°W)
Time: 16:38:19
(UTC-04:00)
Language:

S-56A Canister/Altair - Orbit

View from above orbital plane
View from above orbital plane
View from above satellite
View from above satellite

Ground track
Ground track

The orbit data is extracted from the following two-line orbital elements,

1 00082U 61004B   14298.00449582  .00000003  00000-0  29074-4 0  7321
2 00082 038.8627 271.9104 1177265 213.2347 138.8725 12.25646902554703
Epoch (UTC): 25 October 2014 00:06:28
Eccentricity: 0.1177265
inclination: 38.8627°
perigee height: 632 km
apogee height: 2503 km
right ascension of ascending node: 271.9104°
argument of perigee: 213.2347°
revolutions per day: 12.25646902
mean anomaly at epoch: 138.8725°
orbit number at epoch: 55470

The dashed part of the orbit path shows where the satellite is in the earth's shadow,  

DLR